Main page
METAR-TAF:

METAR-TAF

Airports :

RAF Spadeadam

Spadeadam, England

latitude: 55-03N, longitude: 002-33W, elevation: 325 m

Current weather observation

The report was made 33 minutes ago, at 20:50 UTC
Wind 11 kt from the South/Southwest
Temperature 8°C
Humidity 93%
Pressure 1015 hPa
Visibility 10 km or more

METAR: EGOM 132050Z AUTO 21011KT 9999 FEW028/// SCT033/// 08/07 Q1015 REDZ

Time: 21:23 (21:23 UTC)


TAF: missing

Weather observations and forecasts of more than 4000 airports (METAR and TAF reports).

The available stations are represented by yellow and red dots on the map.

Hover mouse over dot to see the name of the station.

Then click to see weather observations and forecasts.

To change the map : click on the green buttons with a black cross to zoom in, on the green button with a dash to zoom out, or on the green arrows for adjacent maps.


METAR-TAF: